Regional Weather Roundup
Issued by NWS

Home | Current Version | Previous Version | Text Only | Print | Product List | Glossary On
Versions: 1 2 3 4 5 6 7 8 9 10 11 12 13 14 15 16 17 18 19 20 21 22 23 24 25 26 27 28 29 30 31 32 33 34 35 36 37 38 39 40 41 42 43 44 45 46 47 48 49 50
000
ASCA44 KEWX 060420
RWRMX

LATIN AMERICA AND CARIBBEAN REGIONAL WEATHER ROUNDUP
NATIONAL WEATHER SERVICE AUSTIN/SAN ANTONIO TX
1100 PM CDT TUE MAY 05 2015

NOTE: "FAIR" INDICATED FEW OR NO CLOUDS BELOW 12,000 FEET WITH NO
SIGNIFICANT WEATHER AND/OR OBSTRUCTIONS TO VISIBILITY.

BAJA CALIFORNIA

CITY           SKY/WX    TMP DP  RH WIND       PRES   REMARKS
LA PAZ         MOCLDY    70  52  52 S9        29.93R
MEXICALI       MOCLDY    73  57  56 SE7       29.74F
S.J. DEL CABO    N/A    N/A N/A N/A MISG        N/A
TIJUANA        PTCLDY    57  46  67 W5        29.99R

NORTHWESTERN MEXICO

CITY           SKY/WX    TMP DP  RH WIND       PRES   REMARKS
CULIACAN       CLOUDY    75  64  69 CALM      29.88R
HERMOSILLO     CLEAR     75  50  41 CALM      29.91R
LOS MOCHIS       N/A    N/A N/A N/A MISG        N/A
OBREGON          N/A    N/A N/A N/A MISG        N/A

NORTHEASTERN MEXICO

CITY           SKY/WX    TMP DP  RH WIND       PRES   REMARKS
CHIHUAHUA      PTCLDY    70  27  19 NW6       29.95R
MONTERREY      CLOUDY    75  70  83 E6        29.86R
REYNOSA        PTCLDY    73  68  83 SE12      29.89R
SALTILLO       PTCLDY    63  54  72 N6        30.02R
TORREON        PTCLDY    84  37  18 CALM      29.89R
CD. VICTORIA   MOCLDY    79  66  65 S10       29.88R

WESTERN MEXICO

CITY           SKY/WX    TMP DP  RH WIND       PRES   REMARKS
AGUASCALIENTES PTCLDY    70  32  24 W3        30.20R
DEL BAJIO      PTCLDY    73  43  33 W5        30.22R
GUADALAJARA    MOCLDY    73  46  38 SW6       30.14R
MAZATLAN       PTCLDY    70  57  64 W7        29.87R
P. VALLARTA    PTCLDY    77  72  83 S7        29.89R
ZACATECAS      PTCLDY    64  36  34 SW12      30.24R

CENTRAL MEXICO

CITY           SKY/WX    TMP DP  RH WIND       PRES   REMARKS
MEXICO CITY    CLOUDY    63  54  72 S3        30.32S
MORELIA        MOCLDY    66  46  48 SW7       30.19R
PUEBLA         MOCLDY    55  52  88 W7        30.36R
QUERETARO      PTCLDY    73  46  38 W7        30.22R
S. LUIS POTOSI PTCLDY    70  57  64 CALM      30.15R
TAMPICO        MOCLDY    79  73  83 SE13      29.89R
TOLUCA         MOCLDY    59  48  67 NE3       30.39R

SOUTHERN MEXICO

CITY           SKY/WX    TMP DP  RH WIND       PRES   REMARKS
ACAPULCO       CLEAR     82  75  78 W2        29.88R
VERACRUZ       MOCLDY    79  73  83 E6        29.87R

YUCATAN PENINSULA

CITY           SKY/WX    TMP DP  RH WIND       PRES   REMARKS
CANCUN         CLEAR     79  73  83 E10       29.99R
COZUMEL        PTCLDY    73  72  94 CALM      29.98S
MERIDA         CLEAR     81  72  74 CALM      29.94R
TAPACHULA      MOCLDY    82  75  78 CALM      29.91R
TUX. GUTIERREZ PTCLDY    81  64  57 N6        29.92R
VILLAHERMOSA   CLEAR     79  75  89 NE7       29.88R

CENTRAL AMERICA

CITY           SKY/WX    TMP DP  RH WIND       PRES   REMARKS
MANAGUA        PTCLDY    82  77  83 SE5       29.83S HX  91

CARIBBEAN

CITY           SKY/WX    TMP DP  RH WIND       PRES   REMARKS
ARUBA          PTCLDY    81  73  78 E24G36    29.92S
CURACAO        PTCLDY    79  73  83 E17       29.97S
KINGSTON       PTCLDY    84  72  65 SE16      29.97S
NASSAU         MOCLDY    73  70  88 CALM      30.06F
SAN JUAN       PTCLDY    79  72  78 E6        30.10S
SANTO DOMINGO  PTCLDY    77  70  78 E5        30.06S
ST. CROIX      CLEAR     79  70  73 E10       30.09
ST. MAARTEN    PTCLDY    81  70  69 E12       30.09S
ST. THOMAS     CLEAR     79  70  73 E10       30.09

$$



USA.gov is the U.S. government's official web portal to all federal, state and local government web resources and services.